Regional Weather Roundup
Issued by NWS

Home | Current Version | Previous Version | Graphics & Text | Print | Product List | Glossary Off
Versions: 1 2 3 4 5 6 7 8 9 10 11 12 13 14 15 16 17 18 19 20 21 22 23 24 25 26 27 28 29 30 31 32 33 34 35 36 37 38 39 40 41 42 43 44 45 46 47 48 49 50

000
ASUS43 KMKX 181000
RWRWI

WISCONSIN REGIONAL WEATHER ROUNDUP
NATIONAL WEATHER SERVICE MILWAUKEE/SULLIVAN WI
500 AM CDT THU SEP 18 2014

NOTE: "FAIR" INDICATES FEW OR NO CLOUDS BELOW 12,000 FEET WITH NO
SIGNIFICANT WEATHER AND/OR OBSTRUCTIONS TO VISIBILITY.

WIZ001-002-006>008-014>016-023>028-181100-
NORTHWEST WISCONSIN

CITY           SKY/WX    TMP DP  RH WIND       PRES   REMARKS
SUPERIOR ARPT  CLOUDY    43  38  83 E6        30.15F
ASHLAND        CLOUDY    44  40  85 E6        30.17R
HAYWARD        CLOUDY    44  42  93 NE6       30.13R
SIREN          CLOUDY    45  42  90 E6        30.11R
RICE LAKE      MOCLDY    45  43  94 NE3       30.12R
LADYSMITH      CLOUDY    47  46  93 E6        30.13S
EAU CLAIRE     MOCLDY    48  46  93 NE6       30.08S
MENOMONIE      SUNNY     46  45  97 CALM      30.08S
NEW RICHMOND   CLEAR     45  44  99 NE3       30.08S
OSCEOLA        CLEAR     46  46 100 NE3       30.11S
$$

WIZ003>005-009-010-017-018-181100-
NORTH CENTRAL WISCONSIN

CITY           SKY/WX    TMP DP  RH WIND       PRES   REMARKS
WOODRUFF       CLOUDY    42  39  91 CALM      30.13S
RHINELANDER    CLOUDY    42  40  92 E8        30.14R
EAGLE RIVER    CLOUDY    39  38  95 E7        30.14R WCI  34
LAND O LAKES   CLOUDY    38  36  92 E3        30.16S
PHILLIPS       CLOUDY    45  43  91 E5        30.11S
TOMAHAWK       CLOUDY    45  42  88 E5        30.13S
MEDFORD        CLOUDY    47  46  95 SE5       30.11R
MERRILL        CLOUDY    47  44  91 E7        30.12S
$$

WIZ029-030-035-036-043>047-181100-
CENTRAL WISCONSIN

CITY           SKY/WX    TMP DP  RH WIND       PRES   REMARKS
WAUSAU         CLOUDY    45  42  89 E9        30.13R
MOSINEE        CLOUDY    45  43  93 E5        30.13R
MARSHFIELD     CLOUDY    46  43  89 E10       30.11R
STEVENS POINT  CLOUDY    43  40  91 E12       30.13R
WAUPACA        CLOUDY    48  45  87 NE6       30.14S
WAUTOMA        CLOUDY    50  46  87 E9        30.13R
WISC RAPIDS    CLOUDY    47  44  90 E10       30.13R
CAMP DOUGLAS   CLOUDY    50  50 100 E9        30.10R FOG
$$

WIZ011>013-019>022-031-037>040-048>050-181100-
NORTHEAST WISCONSIN

CITY           SKY/WX    TMP DP  RH WIND       PRES   REMARKS
ANTIGO         CLOUDY    42  41  96 E8        30.13S
STURGEON BAY   CLOUDY    45  37  76 NE8       30.15R
GREEN BAY      CLOUDY    45  40  82 N12       30.15R
MANITOWOC      NOT AVBL
APPLETON       CLOUDY    45  41  87 NE12      30.13S
CLINTONVILLE   CLOUDY    43  39  87 E9        30.15R
OSHKOSH        CLOUDY    49  46  90 NE8       30.12R
$$

WIZ032>034-041-042-053>061-181100-
SOUTHWEST WISCONSIN

CITY           SKY/WX    TMP DP  RH WIND       PRES   REMARKS
LA CROSSE      PTCLDY    49  47  93 E3        30.07R FOG
SPARTA         CLEAR     41  41  98 CALM      30.09R
VIROQUA        FAIR      49  49 100 E6        30.07R
BOSCOBEL       FOG       51  49  92 CALM      30.08R VSB 1/4
PRAIRIE DU CHI FOG       47  46  97 CALM      30.06S VSB 3/4
PLATTEVILLE    FAIR      50  48  92 CALM      30.07S
$$

WIZ056-057-062-063-064-067-068-181100-
SOUTH CENTRAL WISCONSIN

CITY           SKY/WX    TMP DP  RH WIND       PRES   REMARKS
BARABOO/DELLS  FOG       50  49  95 E7        30.09S VSB 1/4
LONE ROCK      NOT AVBL
WATERTOWN      CLOUDY    50  50 100 NE7       30.10R
MADISON        CLOUDY    51  50  96 NE10      30.10R FOG
MIDDLETON      CLOUDY    50  50  99 E3        30.10R VSB 1/4
MONROE         CLEAR     54  50  87 CALM      30.06S
JANESVILLE     CLEAR     46  45  93 NE7       30.07R
$$

WIZ051-052-058>065-066-070>072-181100-
SOUTHEAST WISCONSIN

CITY           SKY/WX    TMP DP  RH WIND       PRES   REMARKS
MILWAUKEE      CLOUDY    53  49  86 N9        30.10R
WAUKESHA       CLOUDY    46  46 100 NE6       30.11R
MILWAUKEE/TIMM CLOUDY    50  46  87 N7        30.11R
RACINE         CLOUDY    54  51  90 N13       30.10R
BURLINGTON     PTCLDY    43  43 100 N3        30.09R FOG
KENOSHA        CLOUDY    53  52  96 N6        30.09R
FOND DU LAC    CLOUDY    49  44  83 NE12      30.13R
SHEBOYGAN      CLOUDY    48  44  86 N12       30.13R
WEST BEND      CLOUDY    48  45  87 NE5       30.11R
JUNEAU         CLOUDY    49  48  96 NE5       30.12R
$$

LSZ147-162-181100-
LAKE SUPERIOR

STATION/POSITION TIME  TEMP    WIND        PRES    WAVE
                       AIR SEA DIR/SP/G            HT/PER
                 (UTC) (F)     (DEG/KT/KT) (MB)    (FT/S)
W MID LAKE BUOY  0850   44 47  120/ 10/ 12 1022.3S   2/ 5
DEVILS ISLAND    0900   44     100/ 14/ 16 1022.5R
PORT WING        0900   45      60/  8/ 11 1021.3
SAXON HARBOR     0940   40        CALM     1021.7R
$$

LMZ867-665-643>646-181100-
LAKE MICHIGAN

STATION/POSITION TIME  TEMP    WIND        PRES    WAVE
                       AIR SEA DIR/SP/G            HT/PER
                 (UTC) (F)     (DEG/KT/KT) (MB)    (FT/S)
N MID LAKE BUOY  0850   48 57   20/ 14/ 16 1020.4R   3/ 5
NORTHPORT PIER   0900   46      20/ 12/ 15 1021.0S
KEWAUNEE LAKESHO 0900   47      10/  6/ 10 1019.3R
SHEBOYGAN LAKESH 0900   49 48   10/ 18/ 20 1019.9R
PORT WASHINGTON  0900   51     360/  7/ 11 1019.6R
ATWATER BUOY     0900   55     360/ 17/ 21 1019.5R
MILWAUKEE LAKESH 0900   53     350/ 11/ 15   N/A
S MID LAKE BUOY  0850   62 65  300/ 10/ 12 1018.0R   0
KENOSHA   LAKESH 0900   55     350/ 12/ 14 1018.3R
$$

TC  - TEMPERATURE IN CELSIUS
VSB - VISIBILITY IN STATUTE MILES
WCI - WIND CHILL INDEX
HX  - HEAT INDEX



USA.gov is the U.S. government's official web portal to all federal, state and local government web resources and services.